Flag for USA Past Weather in Kykotsmovi Village, Hopi, Arizona, USA — Yesterday and Last 2 Weeks

Now
72 °F

Clear.


Feels Like: 73 °F
Forecast: 45 / 80 °F
Wind: 9 mph from Southwest

Location: Winslow Municipal Airport

Current Time: May 28, 2016 at 8:53:09 PM

Latest Report: May 28, 2016 at 7:56 PM


Visibility: 10 mi

Pressure: 29.81 "Hg (24.41 "Hg at 1727m altitude)

Humidity: 13%

Dew Point: 18 °F

Location of Kykotsmovi Village, HopiLocation

Past Weather in Kykotsmovi Village, Hopi — Graph

°F

Kykotsmovi Village, Hopi Temperature Yesterday

Maximum temperature yesterday: 78 °F (at 3:56 PM)
Minimum temperature yesterday: 46 °F (at 4:56 AM)
Average temperature yesterday: 63 °F

High & Low Weather Summary for the Past Weeks

 TemperatureHumidityPressure
High87 °F (May 14, 12:56 PM)89% (May 18, 8:56 AM)30.14 "Hg (May 18, 8:56 AM)
Low41 °F (May 19, 3:56 AM)7% (May 25, 12:56 PM)29.62 "Hg (May 15, 3:56 PM)
Average63 °F33%29.82 "Hg
* Reported May 13 6:56 PM — May 28 6:56 PM, Kykotsmovi Village, Hopi, Weather by CustomWeather, © 2016

Note: Actual official high and low records may vary slightly from our data, if they occured in-between our weather recording intervals... More about our weather records

Advertising

Kykotsmovi Village, Hopi Weather History for the Previous 24 Hours

Scroll right to see more
 ConditionsComfort  
Time TempWeatherWind HumidityBarometerVisibility
6:56 PM
Sat, May 28
78 °FSunny.9 mph10%29.78 "Hg10 mi
5:56 PM81 °FSunny.9 mph9%29.78 "Hg10 mi
4:56 PM82 °FSunny.5 mph8%29.78 "Hg10 mi
3:56 PM83 °FSunny.8 mph8%29.78 "Hg10 mi
2:56 PM82 °FSunny.No wind8%29.78 "Hg10 mi
1:56 PM82 °FSunny.13 mph10%29.79 "Hg10 mi
12:56 PM81 °FSunny.15 mph11%29.80 "Hg10 mi
11:56 AM79 °FSunny.10 mph14%29.83 "Hg10 mi
10:56 AM77 °FSunny.8 mph16%29.85 "Hg10 mi
9:56 AM72 °FSunny.7 mph20%29.88 "Hg10 mi
8:56 AM68 °FSunny.8 mph23%29.87 "Hg10 mi
7:56 AM61 °FSunny.5 mph31%29.88 "Hg10 mi
6:56 AM55 °FPassing clouds.7 mph37%29.88 "Hg10 mi
5:56 AM46 °FPassing clouds.No wind46%29.88 "Hg10 mi
4:56 AM46 °FClear.6 mph48%29.86 "Hg10 mi
3:56 AM46 °FClear.3 mph46%29.84 "Hg10 mi
2:56 AM54 °FClear.3 mph37%29.83 "Hg10 mi
1:56 AM55 °FPassing clouds.6 mph34%29.82 "Hg10 mi
12:56 AM58 °FPassing clouds.3 mph32%29.82 "Hg9 mi
11:56 PM
Fri, May 27
59 °FPassing clouds.5 mph31%29.81 "Hg10 mi
10:56 PM60 °FPassing clouds.10 mph30%29.81 "Hg10 mi
9:56 PM57 °FPassing clouds.No wind33%29.82 "Hg10 mi
8:56 PM66 °FPassing clouds.3 mph25%29.79 "Hg10 mi
Weather by CustomWeather, © 2016

See weather overviewHow to use our weather pages